VK2KGV-15 Weather Reports


time (UTC)temp
F
wind
direction
speed
knots
gust
knots
rain 1hr
in
rain 24hr
in
rain mn
in
humidity
%
barometer
mb
20260505074506 63 91 0.0 0.0 0.00 0.00 0.06 88 1018.5
20260505073503 64 112 0.0 0.0 0.00 0.00 0.06 87 1018.4
20260505072500 64 45 0.0 0.0 0.00 0.00 0.06 87 1018.3
20260505065451 64 12 0.9 2.6 0.00 0.00 0.06 87 1018.5
20260505063444 65 45 0.0 0.0 0.00 0.00 0.05 85 1018.1
20260505061438 65 292 2.6 2.6 0.00 0.00 0.03 84 1018.2
20260505053426 69 293 0.0 0.0 0.00 0.00 0.00 69 1017.4
20260505051420 69 262 1.7 3.5 0.00 0.00 0.00 68 1017.2
20260505033348 74 294 0.9 1.7 0.00 0.00 0.00 52 1016.1
20260505031342 76 256 2.6 2.6 0.00 0.00 0.00 50 1016.0
20260505025336 75 282 1.7 5.2 0.00 0.00 0.00 52 1016.2
20260505015317 74 304 1.7 1.7 0.00 0.00 0.00 55 1017.0
20260505011305 73 284 1.7 3.5 0.00 0.00 0.00 57 1017.8
20260505005259 74 298 2.6 2.6 0.00 0.00 0.00 57 1017.8
20260504235240 74 112 0.9 2.6 0.00 0.00 0.00 57 1018.2
20260504233234 73 233 2.6 3.5 0.00 0.00 0.00 60 1018.5
20260504231228 70 238 1.7 3.5 0.00 0.00 0.00 64 1018.6
20260504223215 68 239 0.0 0.9 0.00 0.00 0.00 68 1019.0
20260504221209 66 112 0.9 0.9 0.00 0.00 0.00 67 1018.9
20260504215203 63 0 0.0 0.0 0.00 0.00 0.00 71 1019.2
20260504213156 61 0 0.0 0.0 0.00 0.00 0.00 72 1018.8
20260504211150 60 112 0.0 0.0 0.00 0.00 0.00 72 1019.0
20260504203138 59 315 0.0 0.0 0.00 0.00 0.00 72 1018.6
20260504195125 57 0 0.0 0.0 0.00 0.00 0.00 71 1018.5
20260504193119 57 0 0.0 0.0 0.00 0.00 0.00 72 1018.4
20260504185107 55 135 0.0 0.0 0.00 0.00 0.00 72 1017.9
20260504175048 53 0 0.0 0.0 0.00 0.00 0.00 75 1017.8
20260504174045 53 0 0.0 0.0 0.00 0.00 0.00 74 1017.8
20260504173042 52 0 0.0 0.0 0.00 0.00 0.00 74 1017.7
20260504171036 52 0 0.0 0.0 0.00 0.00 0.00 73 1017.6
20260504140940 55 180 0.0 0.0 0.00 0.00 0.00 64 1018.1